Location: Del Amo
(33.8464°N, 118.2104°W)
Time: 02:35:29
(UTC+00:00)

SR - Pass Details

Date: 23 September 2024
Orbit: 578 x 855 km, 66.7° (Epoch: 02 October)

Event Time Altitude Azimuth Distance (km) Brightness Sun altitude
Rises 05:12:38 0° 320° (NW) 3,042 ? -41.0°
Reaches altitude 10° 05:15:06 10° 310° (NW) 2,169 ? -41.4°
Enters shadow 05:15:40 13° 306° (NW) 1,984 ? -41.5°
Maximum altitude 05:19:23 30° 250° (WSW) 1,303 - -42.1°
Drops below altitude 10° 05:23:58 10° 190° (S) 2,318 - -42.9°
Sets 05:26:42 0° 180° (S) 3,286 - -43.3°
